Wind_Speed
10 10 10 10 10 11 11 11 11 11 11 11 12 12 12 13 13 13 13 14 14 14 15 15 16 16 17 17 17 18 18 18 18 19 19 20 20 20 20 20 20 20 20
12 12 12 12 12 12 13 13 13 13 13 14 14 14 15 15 15 15 16 15 16 16 16 17 17 17 18 19 19 19 20 21 21 20 21 22 22 22 22 22 22 22 22
13 13 13 14 14 14 14 14 14 14 15 15 16 17 17 17 17 17 18 18 18 18 18 19 19 19 20 21 21 21 22 22 22 23 23 23 24 24 24 24 24 24 24
14 14 15 15 15 15 15 15 16 16 17 17 18 19 19 19 19 19 20 20 20 20 20 21 21 21 22 23 23 23 24 24 24 25 25 25 25 25 26 25 25 26 26
16 16 16 16 16 17 17 17 18 19 19 20 20 20 20 20 20 21 22 22 23 23 23 23 23 23 24 24 25 26 26 26 26 26 26 26 26 26 27 26 26 26 26
17 17 18 18 18 18 18 19 19 20 20 20 21 21 21 21 22 22 23 23 24 24 24 24 25 25 25 26 27 27 27 27 27 27 27 27 27 27 27 27 27 27 27
19 19 19 19 19 19 19 20 20 21 21 21 22 22 22 22 23 23 23 23 24 24 25 25 26 27 27 28 28 28 29 29 29 29 29 28 28 28 29 29 28 29 29
21 21 21 21 21 21 21 22 23 23 23 22 23 23 24 24 24 24 24 24 25 26 27 28 28 29 29 29 29 30 30 30 30 29 29 29 29 29 30 30 30 31 31
22 22 22 22 23 23 23 23 23 23 23 23 23 24 25 26 27 27 27 28 28 28 29 29 29 29 29 30 31 31 31 31 30 30 30 30 30 30 30 31 31 32 31
22 22 23 24 24 24 25 24 24 24 25 25 26 26 27 28 29 29 30 30 30 30 30 30 31 31 31 32 32 32 32 31 31 31 31 31 31 31 31 31 31 31 32
24 24 25 26 26 26 26 26 26 26 26 27 27 28 29 30 30 31 31 31 31 32 32 32 33 34 34 33 33 33 32 32 32 32 32 32 32 32 31 32 32 33 33
26 26 27 27 27 27 27 27 28 28 28 28 28 29 30 31 31 31 32 32 32 32 33 33 34 34 34 34 34 33 33 33 33 33 33 33 33 33 33 34 34 35 35
28 29 29 28 29 29 29 29 29 29 29 29 30 31 31 32 32 32 33 34 34 34 34 34 34 34 34 34 34 34 34 33 33 33 34 34 34 35 35 35 36 36 37
30 30 30 30 30 30 30 30 31 31 31 32 32 33 33 33 33 34 34 35 35 35 35 34 34 35 35 34 34 34 34 34 34 35 35 35 36 36 37 37 37 38 38
30 31 32 31 32 32 32 32 32 32 32 32 33 33 33 33 34 35 35 34 34 34 34 35 35 35 35 35 35 35 36 36 37 37 37 38 38 39 39 38 38 39 39
32 32 33 33 33 33 34 34 34 34 33 32 32 33 33 34 34 34 35 35 35 35 35 35 36 36 36 37 37 36 37 37 37 37 38 39 40 40 40 40 40 40 39
33 33 33 33 34 34 34 34 35 35 35 34 34 34 35 35 35 35 35 36 36 36 36 37 37 37 37 38 37 37 37 38 38 38 39 40 40 40 41 41 41 41 41
33 33 34 35 35 35 35 36 36 36 36 36 36 36 36 36 37 37 37 37 37 37 37 37 37 37 37 38 38 38 39 39 39 39 39 39 40 41 41 41 41 42 42
34 34 35 36 36 36 36 37 37 37 37 37 38 38 37 37 37 37 37 37 37 37 38 38 37 37 38 37 37 38 38 39 39 39 39 39 39 40 40 41 41 42 42
35 36 36 36 36 36 36 37 37 37 38 38 39 38 38 38 37 38 38 38 38 38 38 38 38 38 38 38 38 38 39 39 40 40 40 40 40 40 40 41 41 41 41
36 37 37 37 37 37 37 37 38 38 38 39 39 38 38 38 38 38 38 38 39 39 39 39 38 38 39 39 38 39 39 39 39 40 40 40 40 40 40 40 40 41 40
35 36 36 36 36 37 37 38 39 40 39 38 38 37 38 38 38 38 38 38 38 38 39 39 39 39 39 38 38 38 38 38 38 38 39 39 39 39 39 39 39 39 39
35 36 37 37 37 38 38 38 38 38 37 37 37 38 38 37 37 38 38 38 38 38 38 38 38 38 38 37 38 38 39 39 39 39 39 39 39 39 39 38 38 38 38
37 38 39 38 37 37 37 37 37 37 37 37 37 37 37 37 37 38 37 38 38 38 38 38 38 38 38 39 40 40 39 39 39 38 38 37 37 37 38 37 37 37 37
37 37 37 37 37 37 37 37 37 36 36 36 36 37 37 37 37 37 37 38 38 37 37 37 37 38 38 38 38 38 38 38 38 37 37 37 37 37 37 37 37 37 37
34 35 35 35 35 35 36 36 36 36 36 36 37 37 37 37 38 38 37 37 36 35 35 36 36 36 37 37 37 37 37 37 37 37 37 36 36 36 36 36 36 36 37
Wind_Direction
285 282 282 281 283 283 283 285 284 283 281 281 282 284 285 289 291 291 292 290 287 287 289 291 292 293 292 294 292 289 289 291 292 293 295 296 297 299 301 302 303 302 301
285 282 281 281 283 283 282 281 280 281 283 282 283 285 285 288 290 289 288 289 286 286 288 291 292 292 293 293 293 292 289 289 291 292 293 294 295 295 295 297 298 299 299
288 284 283 284 284 283 282 281 282 281 283 284 285 285 286 287 288 287 287 287 286 285 286 289 289 290 291 292 293 293 292 291 291 292 292 293 294 295 295 296 298 299 298
290 286 285 286 285 284 282 281 281 282 285 287 286 288 287 288 289 288 287 287 286 287 288 288 288 288 289 290 291 291 291 291 291 291 290 291 291 292 294 294 296 297 297
291 287 286 287 287 285 284 283 285 286 286 287 288 290 290 290 290 289 288 288 287 287 287 287 288 290 290 290 290 290 291 291 291 291 291 291 291 291 292 292 293 294 296
291 290 288 286 287 288 286 285 285 286 287 287 288 289 290 290 291 290 289 288 288 288 289 287 287 288 290 291 292 291 292 291 291 289 289 290 291 291 291 290 291 292 295
287 287 287 286 285 287 286 286 286 286 286 288 288 289 289 290 292 293 292 291 290 289 289 289 289 289 290 291 291 292 291 290 290 288 287 290 289 289 289 289 290 291 292
285 285 284 284 285 285 285 285 286 286 288 289 289 289 289 290 292 292 292 293 292 291 290 289 290 290 290 291 292 294 293 291 290 288 288 289 290 290 290 291 291 292 292
284 285 285 283 283 284 285 286 286 287 288 288 289 288 288 289 290 290 292 293 292 292 291 290 291 291 292 292 293 294 294 292 290 288 289 290 289 291 291 291 292 292 293
286 287 286 285 282 283 284 286 287 287 287 287 287 288 287 288 289 292 292 293 291 292 292 291 291 291 291 293 293 293 293 291 289 288 288 289 289 289 290 290 292 293 293
285 286 286 286 283 280 281 283 285 286 287 287 288 288 288 289 291 293 293 292 292 292 292 290 290 290 292 292 292 292 291 289 288 288 287 288 288 289 290 290 291 292 293
282 283 285 286 285 283 282 282 283 285 287 287 288 289 289 290 292 293 294 292 292 293 293 293 293 292 292 292 291 290 289 288 288 288 288 288 288 289 291 291 292 292 292
278 280 282 283 284 283 282 282 283 285 286 287 289 289 288 289 290 291 292 292 293 294 294 294 294 293 292 292 291 291 291 290 289 288 288 287 288 289 290 290 290 290 290
277 278 279 280 281 282 281 281 283 285 287 288 289 290 289 290 291 292 292 294 294 294 294 294 293 292 292 293 292 293 292 290 289 288 288 287 287 289 290 289 289 289 289
277 277 277 279 280 281 282 281 284 286 287 289 290 290 291 292 292 292 294 293 294 294 294 294 294 294 293 292 292 292 291 289 289 288 289 289 289 289 289 290 291 290 290
275 276 277 277 279 281 283 284 286 287 289 289 289 290 291 292 293 293 293 293 293 293 293 293 294 293 292 292 291 291 290 290 290 289 289 289 289 289 289 290 290 291 291
275 276 277 279 281 282 284 284 285 286 287 288 289 290 291 292 292 292 292 292 292 292 293 293 293 293 293 293 293 292 291 291 290 290 290 289 289 288 288 289 289 289 291
275 276 277 279 280 281 281 282 283 284 286 288 289 289 291 292 292 292 291 291 291 291 292 293 293 293 293 293 293 292 291 290 290 291 291 290 289 289 289 288 288 289 289
275 276 277 279 280 281 281 282 283 284 286 288 289 289 290 291 292 291 291 291 291 292 292 293 293 293 293 293 293 292 291 290 291 291 291 291 290 290 290 289 289 289 288
275 277 278 280 282 282 283 285 284 285 287 288 289 289 290 291 292 292 293 292 292 292 292 293 293 293 293 292 293 293 292 292 292 291 291 291 291 290 291 290 290 289 288
275 276 277 278 280 282 283 284 285 286 287 288 289 290 291 291 293 294 294 294 294 293 293 292 292 292 292 292 292 292 293 293 293 292 292 291 291 291 291 291 290 290 289
275 275 277 281 283 284 284 285 286 287 287 288 289 291 292 293 294 295 295 294 294 293 293 292 292 292 292 292 292 292 292 293 293 293 293 293 293 293 292 291 290 290 289
274 276 278 281 284 285 285 286 288 287 287 288 289 291 293 294 294 294 295 294 294 294 293 292 292 292 292 292 292 293 293 293 293 293 293 293 292 292 292 292 291 290 289
274 276 278 280 282 284 286 287 288 288 287 288 290 292 293 293 294 295 295 295 295 294 293 292 292 292 292 293 293 293 292 293 293 292 292 292 292 292 291 291 290 289 289
276 277 277 278 281 283 284 285 287 288 288 289 290 291 293 293 294 294 295 295 295 294 294 294 294 294 294 295 294 293 292 292 292 291 291 291 291 291 291 291 291 290 290
276 277 278 280 282 283 284 286 287 288 287 288 289 290 292 294 294 294 294 294 295 295 295 295 295 295 295 294 294 294 293 292 291 291 292 292 292 292 292 292 292 292 291
Height
5905 5904 5903 5902 5902 5901 5901 5900 5899 5897 5896 5895 5894 5893 5892 5891 5890 5889 5888 5886 5885 5884 5883 5882 5880 5879 5878 5876 5875 5873 5872 5870 5869 5868 5866 5863 5861 5859 5857 5855 5853 5850 5849
5902 5901 5901 5900 5899 5898 5897 5896 5895 5894 5893 5892 5891 5890 5889 5888 5887 5885 5884 5883 5881 5880 5879 5878 5876 5875 5873 5872 5870 5868 5867 5865 5864 5863 5861 5858 5856 5854 5852 5850 5847 5845 5843
5900 5899 5898 5897 5896 5894 5893 5892 5891 5891 5890 5889 5887 5886 5885 5884 5882 5881 5880 5878 5877 5876 5874 5873 5871 5870 5868 5867 5865 5863 5861 5860 5858 5857 5855 5853 5850 5848 5846 5844 5842 5839 5837
5896 5895 5894 5893 5892 5891 5889 5888 5887 5886 5885 5884 5883 5882 5880 5879 5877 5876 5875 5873 5872 5870 5869 5868 5866 5865 5863 5861 5859 5857 5855 5854 5852 5850 5848 5846 5844 5842 5840 5838 5836 5833 5831
5893 5892 5890 5889 5888 5887 5885 5884 5883 5881 5880 5879 5878 5876 5875 5874 5872 5871 5869 5868 5866 5865 5863 5862 5860 5859 5857 5855 5853 5851 5849 5847 5845 5843 5841 5839 5837 5835 5833 5831 5828 5826 5824
5889 5887 5886 5884 5883 5882 5881 5879 5878 5877 5875 5874 5872 5871 5870 5868 5867 5865 5863 5862 5861 5859 5857 5855 5854 5852 5850 5849 5846 5844 5842 5840 5838 5836 5834 5832 5830 5827 5825 5823 5821 5819 5817
5883 5882 5881 5879 5878 5877 5876 5874 5873 5871 5870 5868 5867 5865 5864 5863 5861 5859 5857 5856 5854 5853 5851 5849 5847 5845 5843 5841 5839 5837 5835 5832 5830 5828 5826 5824 5822 5820 5817 5815 5813 5810 5808
5878 5877 5876 5874 5873 5872 5870 5869 5867 5866 5864 5862 5861 5859 5858 5856 5855 5853 5851 5849 5848 5846 5844 5842 5840 5838 5835 5833 5831 5829 5826 5824 5821 5819 5817 5815 5813 5811 5809 5807 5804 5802 5799
5872 5871 5870 5868 5867 5865 5864 5862 5861 5859 5858 5856 5854 5853 5851 5850 5848 5846 5844 5842 5841 5839 5836 5834 5832 5830 5827 5824 5822 5820 5817 5814 5812 5810 5808 5806 5804 5802 5800 5798 5795 5793 5791
5866 5865 5863 5862 5861 5859 5857 5856 5854 5853 5851 5849 5847 5846 5844 5842 5841 5839 5837 5835 5833 5830 5828 5826 5824 5821 5819 5816 5813 5811 5808 5806 5803 5801 5799 5797 5795 5793 5791 5789 5786 5784 5781
5860 5858 5857 5855 5854 5852 5850 5849 5848 5846 5844 5842 5840 5838 5836 5835 5833 5831 5829 5826 5824 5822 5819 5817 5815 5812 5810 5807 5804 5802 5799 5797 5795 5792 5790 5788 5786 5784 5782 5779 5777 5775 5772
5852 5851 5850 5848 5847 5845 5843 5842 5840 5839 5837 5835 5833 5831 5829 5827 5825 5823 5820 5818 5815 5813 5811 5808 5805 5803 5800 5797 5795 5792 5790 5787 5785 5783 5781 5778 5776 5774 5772 5770 5767 5765 5763
5845 5844 5842 5841 5839 5837 5836 5834 5833 5831 5829 5827 5825 5823 5821 5819 5816 5814 5812 5809 5807 5804 5801 5798 5796 5793 5790 5787 5785 5782 5779 5777 5775 5773 5771 5768 5766 5764 5761 5759 5757 5754 5752
5836 5835 5834 5832 5831 5829 5828 5826 5825 5823 5821 5819 5817 5815 5813 5810 5808 5805 5802 5800 5797 5794 5791 5788 5786 5783 5780 5777 5775 5772 5769 5767 5765 5763 5760 5758 5756 5753 5751 5748 5746 5743 5740
5827 5826 5824 5823 5822 5820 5819 5817 5815 5814 5812 5810 5808 5805 5803 5801 5798 5795 5792 5790 5787 5784 5781 5778 5776 5773 5770 5767 5765 5762 5759 5757 5754 5752 5750 5747 5745 5742 5739 5737 5734 5731 5729
5817 5816 5815 5814 5812 5811 5809 5808 5806 5805 5803 5800 5798 5796 5793 5791 5788 5786 5783 5780 5777 5774 5771 5768 5765 5763 5760 5757 5754 5751 5748 5746 5743 5741 5738 5735 5733 5730 5728 5725 5722 5720 5717
5807 5806 5805 5804 5803 5801 5800 5798 5797 5795 5793 5791 5789 5786 5783 5781 5778 5775 5773 5770 5767 5764 5761 5758 5755 5752 5749 5746 5743 5740 5737 5734 5732 5729 5726 5723 5721 5718 5715 5713 5710 5707 5705
5798 5797 5795 5794 5793 5791 5789 5788 5786 5785 5783 5780 5778 5776 5773 5770 5767 5765 5762 5759 5756 5753 5750 5747 5744 5741 5738 5735 5732 5729 5726 5723 5720 5717 5714 5711 5708 5706 5703 5700 5698 5695 5692
5788 5787 5785 5784 5782 5780 5779 5777 5776 5774 5772 5770 5767 5765 5762 5759 5756 5753 5750 5747 5745 5742 5739 5736 5733 5730 5727 5724 5721 5718 5715 5711 5708 5705 5702 5699 5696 5693 5690 5687 5685 5682 5679
5777 5776 5775 5773 5771 5770 5768 5766 5764 5763 5761 5758 5756 5754 5751 5748 5745 5741 5738 5736 5733 5730 5728 5725 5722 5718 5715 5712 5709 5706 5703 5700 5696 5693 5690 5687 5684 5680 5677 5675 5672 5669 5666
5766 5765 5764 5762 5761 5759 5757 5756 5754 5752 5750 5747 5745 5743 5740 5737 5733 5730 5727 5724 5721 5718 5715 5713 5710 5706 5703 5700 5697 5694 5691 5687 5684 5681 5678 5675 5671 5668 5665 5662 5659 5656 5653
5755 5754 5753 5751 5749 5748 5746 5744 5742 5740 5738 5736 5734 5731 5728 5725 5722 5718 5715 5712 5709 5706 5703 5700 5697 5694 5691 5688 5685 5682 5678 5675 5672 5669 5665 5662 5659 5656 5653 5650 5647 5644 5641
5744 5743 5742 5741 5739 5737 5735 5733 5731 5729 5727 5725 5722 5720 5717 5714 5710 5707 5703 5700 5697 5694 5691 5688 5685 5682 5679 5676 5673 5669 5666 5663 5660 5656 5653 5650 5647 5644 5641 5638 5635 5632 5630
5734 5733 5732 5730 5728 5726 5724 5722 5720 5718 5716 5713 5711 5708 5705 5702 5699 5695 5692 5688 5685 5681 5679 5676 5672 5669 5666 5663 5659 5656 5653 5650 5647 5644 5641 5637 5634 5632 5629 5626 5623 5620 5618
5723 5722 5721 5719 5717 5715 5713 5711 5709 5707 5704 5702 5699 5697 5694 5691 5687 5684 5680 5677 5673 5670 5667 5664 5660 5657 5653 5650 5647 5643 5640 5637 5634 5631 5628 5625 5622 5619 5616 5613 5611 5608 5605
5712 5710 5709 5707 5705 5704 5702 5700 5698 5696 5693 5691 5688 5686 5683 5680 5676 5673 5669 5666 5662 5659 5656 5652 5649 5645 5641 5638 5634 5631 5628 5625 5622 5619 5615 5613 5610 5607 5604 5601 5598 5596 5593